Regional Weather Roundup
Issued by NWS

Home | Current Version | Previous Version | Graphics & Text | Print | Product List | Glossary On
Versions: 1 2 3 4 5 6 7 8 9 10 11 12 13 14 15 16 17 18 19 20 21 22 23 24 25 26 27 28 29 30 31 32 33 34 35 36 37 38 39 40 41 42 43 44 45 46 47 48 49 50
000
ASUS43 KMKX 010100
RWRWI

WISCONSIN REGIONAL WEATHER ROUNDUP
NATIONAL WEATHER SERVICE MILWAUKEE/SULLIVAN WI
800 PM CDT SUN APR 30 2017

NOTE: "FAIR" INDICATES FEW OR NO CLOUDS BELOW 12,000 FEET WITH NO
SIGNIFICANT WEATHER AND/OR OBSTRUCTIONS TO VISIBILITY.

WIZ001-002-006>008-014>016-023>028-010200-
NORTHWEST WISCONSIN

CITY           SKY/WX    TMP DP  RH WIND       PRES   REMARKS
SUPERIOR ARPT  CLOUDY    38  32  77 NE12      29.93F WCI  31
ASHLAND        CLOUDY    39  28  64 NE10      29.92F WCI  32
HAYWARD        CLOUDY    41  25  53 NE12      29.85F
SIREN          DRIZZLE   43  29  58 NE10G18   29.85S
CUMBERLAND     LGT RAIN  41  30  65 NE14      29.80F
RICE LAKE      CLOUDY    44  31  60 N14G21    29.82F
CHETEK         NOT AVBL
LADYSMITH      CLOUDY    49  26  41 NE14G22   29.83S
EAU CLAIRE     NOT AVBL
MENOMONIE      CLOUDY    50  35  56 NE13G21   29.75F
NEW RICHMOND   CLOUDY    43  32  64 NE25      29.75F
OSCEOLA        CLOUDY    44  34  69 NE14G20   29.80F
$$

WIZ003>005-009-010-017-018-010200-
NORTH CENTRAL WISCONSIN

CITY           SKY/WX    TMP DP  RH WIND       PRES   REMARKS
MANITOWISH WTR NOT AVBL
ARBOR VITAE    CLOUDY    43  24  47 NE10G17   29.85F
WOODRUFF       CLOUDY    43  24  47 NE10G17   29.85F
RHINELANDER    CLOUDY    43  36  76 E22G28    29.86S
EAGLE RIVER    CLOUDY    43  27  51 E14       29.88S
LAND O LAKES   CLOUDY    43  26  50 E9        29.91S
PHILLIPS       CLOUDY    44  23  42 NE13G23   29.82F
TOMAHAWK       CLOUDY    42  34  72 E13G18    29.85F
MEDFORD        CLOUDY    42  34  73 E16       29.80F
MERRILL        CLOUDY    42  35  74 E16G24    29.85F
$$

WIZ029-030-035-036-043>047-010200-
CENTRAL WISCONSIN

CITY           SKY/WX    TMP DP  RH WIND       PRES   REMARKS
WAUSAU         CLOUDY    39  34  82 E21       29.83F WCI  29
MOSINEE        NOT AVBL
MARSHFIELD     CLOUDY    39  34  82 E21G28    29.78F WCI  29
STEVENS POINT  LGT RAIN  36  36  99 NE14      29.83F WCI  27
WAUPACA        LGT RAIN  40  37  89 NE10G18   29.84F WCI  34
WAUTOMA        LGT RAIN  38  36  92 NE21G26   29.78F WCI  28
WISC RAPIDS    LGT RAIN  39  37  92 E10G21    29.81F WCI  32
CAMP DOUGLAS   CLOUDY    39  36  87 E16G30    29.76F WCI  30
$$

WIZ011>013-019>022-031-037>040-048>050-010200-
NORTHEAST WISCONSIN

CITY           SKY/WX    TMP DP  RH WIND       PRES   REMARKS
ANTIGO         CLOUDY    37  34  89 E16       29.86S WCI  28
SHAWANO        CLOUDY    39  37  90 E16G24    29.89S WCI  30
OCONTO         CLOUDY    38  35  89 NE13G23   29.90F WCI  30
STURGEON BAY   CLOUDY    37  35  92 NE15G23   29.87F WCI  28
GREEN BAY      CLOUDY    39  38  96 NE21      29.85F WCI  29
MANITOWOC      NOT AVBL
APPLETON       LGT RAIN  37  37 100 NE15G21   29.81F FOG     WCI  28
CLINTONVILLE   CLOUDY    37  34  87 E12G18    29.86F WCI  30
OSHKOSH        CLOUDY    39  36  89 NE17G26   29.81F WCI  30
$$

WIZ032>034-041-042-053>061-010200-
SOUTHWEST WISCONSIN

CITY           SKY/WX    TMP DP  RH WIND       PRES   REMARKS
LA CROSSE      CLOUDY    42  38  85 E20G28    29.72R
SPARTA         LGT RAIN  39  38  94 NE14G26   29.71F WCI  31
VIROQUA        CLOUDY    39  38  98 E26G33    29.67F WCI  28
BOSCOBEL       CLOUDY    43  40  89 NE13G25   29.66F FOG
PRAIRIE DU CHI CLOUDY    43  38  84 NE8G18    29.63F
PLATTEVILLE    CLOUDY    43  43 100 E24G33    29.62F
$$

WIZ056-057-062-063-064-067-068-010200-
SOUTH CENTRAL WISCONSIN

CITY           SKY/WX    TMP DP  RH WIND       PRES   REMARKS
REEDSBURG      NOT AVBL
BARABOO/DELLS  DRIZZLE   38  37  96 E18G24    29.75F WCI  29
LONE ROCK      CLOUDY    42  38  85 E15G26    29.73S FOG
MINERAL POINT  CLOUDY    43  43 100 NE21      29.64F
MADISON        CLOUDY    41  39  93 NE18G26   29.72F
MIDDLETON      CLOUDY    42  42  97 NE14      29.73F
WATERTOWN      LGT RAIN  40  40 100 NE14G21   29.75F WCI  33
MONROE         CLOUDY    41  39  93 NE20G30   29.67F
JANESVILLE     LGT RAIN  45  43  93 E21G26    29.69F FOG
$$

WIZ051-052-058>065-066-070>072-010200-
SOUTHEAST WISCONSIN

CITY           SKY/WX    TMP DP  RH WIND       PRES   REMARKS
MILWAUKEE      LGT RAIN  41  40  96 NE16G23   29.76F
WAUKESHA       CLOUDY    39  39 100 NE12G23   29.76F WCI  32
MILWAUKEE/TIMM DRIZZLE   39  37  93 NE17G25   29.77F WCI  30
RACINE         LGT RAIN  41  40  96 NE15      29.74F FOG
KENOSHA        RAIN      42  41  96 NE13      29.73F VSB 1
FOND DU LAC    CLOUDY    39  36  89 NE16G25   29.81R WCI  30
SHEBOYGAN      CLOUDY    39  37  92 NE21      29.82R WCI  29
WEST BEND      DRIZZLE   37  37 100 NE13G18   29.80S WCI  29
JUNEAU         LGT RAIN  39  38  97 NE15G21   29.78F WCI  30
$$

LSZ147-162-010200-
LAKE SUPERIOR

STATION/POSITION TIME  TEMP    WIND        PRES    WAVE
                       AIR SEA DIR/SP/G            HT/PER
                 (UTC) (F)     (DEG/KT/KT) (MB)    (FT/S)
DEVILS ISLAND    0000   38      60/ 17/ 19 1015.7F
PORT WING        0030   40      40/ 17/ 20 1013.9F
SAXON HARBOR     0030   39      40/ 10/ 11 1012.9F
$$

LMZ867-665-643>646-010200-
LAKE MICHIGAN

STATION/POSITION TIME  TEMP    WIND        PRES    WAVE
                       AIR SEA DIR/SP/G            HT/PER
                 (UTC) (F)     (DEG/KT/KT) (MB)    (FT/S)
CHAMBERS ISLAND  0040   38      50/ 17/ 23 1012.9F
N MID LAKE BUOY  2350   37 37   70/ 19/ 23 1014.6F   5/ 5
NORTHPORT PIER   0040   38      70/ 20/ 24 1013.5S
KEWAUNEE LAKESHO 0030   39      30/ 17/ 25 1011.0F
SHEBOYGAN LAKESH 0000   39      20/ 26/ 29 1009.6F
PORT WASHINGTON  0040   41      40/ 15/ 22 1010.5R
MILWAUKEE LAKESH 0030   40      20/ 18/ 20   N/A
S MID LAKE BUOY  2350   42 41   50/ 12/ 14 1008.1F   3/ 6
KENOSHA   LAKESH 0000   42      30/ 16/ 20 1007.8
$$

TC  - TEMPERATURE IN CELSIUS
VSB - VISIBILITY IN STATUTE MILES
WCI - WIND CHILL INDEX
HX  - HEAT INDEX





USA.gov is the U.S. government's official web portal to all federal, state and local government web resources and services.